Year,Month,Day,Hour,Minute,Value (Times are PST for temperature in C)
2012,08,16,00,00,16.60
2012,08,16,00,01,16.60
2012,08,16,00,02,16.60
2012,08,16,00,03,16.60
2012,08,16,00,04,16.60
2012,08,16,00,05,16.60
2012,08,16,00,06,16.50
2012,08,16,00,07,16.50
2012,08,16,00,08,16.50
2012,08,16,00,09,16.50
2012,08,16,00,10,16.40
2012,08,16,00,11,16.40
2012,08,16,00,12,16.40
2012,08,16,00,13,16.40
2012,08,16,00,14,16.40
2012,08,16,00,15,16.40
2012,08,16,00,16,16.40
2012,08,16,00,17,16.40
2012,08,16,00,18,16.30
2012,08,16,00,19,16.30
2012,08,16,00,20,16.30
2012,08,16,00,21,16.30
2012,08,16,00,22,16.30
2012,08,16,00,23,16.30
2012,08,16,00,24,16.30
2012,08,16,00,25,16.30
2012,08,16,00,26,16.30
2012,08,16,00,27,16.30
2012,08,16,00,28,16.30
2012,08,16,00,29,16.20
2012,08,16,00,30,16.20
2012,08,16,00,31,16.20
2012,08,16,00,32,16.20
2012,08,16,00,33,16.20
2012,08,16,00,34,16.20
2012,08,16,00,35,16.20
2012,08,16,00,36,16.20
2012,08,16,00,37,16.20
2012,08,16,00,38,16.20
2012,08,16,00,39,16.20
2012,08,16,00,40,16.20
2012,08,16,00,41,16.10
2012,08,16,00,42,16.10
2012,08,16,00,43,16.10
2012,08,16,00,44,16.10
2012,08,16,00,45,16.00
2012,08,16,00,46,16.00
2012,08,16,00,47,16.00
2012,08,16,00,48,15.90
2012,08,16,00,49,15.90
2012,08,16,00,50,15.90
2012,08,16,00,51,15.90
2012,08,16,00,52,15.80
2012,08,16,00,53,15.80
2012,08,16,00,54,15.80
2012,08,16,00,55,15.80
2012,08,16,00,56,15.80
2012,08,16,00,57,15.80
2012,08,16,00,58,15.80
2012,08,16,00,59,15.80
2012,08,16,01,00,15.80
2012,08,16,01,01,15.80
2012,08,16,01,02,15.80
2012,08,16,01,03,15.80
2012,08,16,01,04,15.80
2012,08,16,01,05,15.80
2012,08,16,01,06,15.80
2012,08,16,01,07,15.80
2012,08,16,01,08,15.80
2012,08,16,01,09,15.80
2012,08,16,01,10,15.80
2012,08,16,01,11,15.80
2012,08,16,01,12,15.80
2012,08,16,01,13,15.80
2012,08,16,01,14,15.80
2012,08,16,01,15,15.80
2012,08,16,01,16,15.80
2012,08,16,01,17,15.70
2012,08,16,01,18,15.70
2012,08,16,01,19,15.70
2012,08,16,01,20,15.70
2012,08,16,01,21,15.70
2012,08,16,01,22,15.70
2012,08,16,01,23,15.70
2012,08,16,01,24,15.70
2012,08,16,01,25,15.70
2012,08,16,01,26,15.70
2012,08,16,01,27,15.70
2012,08,16,01,28,15.70
2012,08,16,01,29,15.70
2012,08,16,01,30,15.70
2012,08,16,01,31,15.60
2012,08,16,01,32,15.60
2012,08,16,01,33,15.60
2012,08,16,01,34,15.60
2012,08,16,01,35,15.60
2012,08,16,01,36,15.60
2012,08,16,01,37,15.60
2012,08,16,01,38,15.60
2012,08,16,01,39,15.60
2012,08,16,01,40,15.50
2012,08,16,01,41,15.50
2012,08,16,01,42,15.50
2012,08,16,01,43,15.50
2012,08,16,01,44,15.50
2012,08,16,01,45,15.50
2012,08,16,01,46,15.50
2012,08,16,01,47,15.50
2012,08,16,01,48,15.50
2012,08,16,01,49,15.40
2012,08,16,01,50,15.40
2012,08,16,01,51,15.50
2012,08,16,01,52,15.50
2012,08,16,01,53,15.50
2012,08,16,01,54,15.50
2012,08,16,01,55,15.50
2012,08,16,01,56,15.50
2012,08,16,01,57,15.50
2012,08,16,01,58,15.50
2012,08,16,01,59,15.50
2012,08,16,02,00,15.50
2012,08,16,02,01,15.50
2012,08,16,02,02,15.50
2012,08,16,02,03,15.50
2012,08,16,02,04,15.50
2012,08,16,02,05,15.50
2012,08,16,02,06,15.50
2012,08,16,02,07,15.50
2012,08,16,02,08,15.50
2012,08,16,02,09,15.50
2012,08,16,02,10,15.50
2012,08,16,02,11,15.50
2012,08,16,02,12,15.50
2012,08,16,02,13,15.50
2012,08,16,02,14,15.50
2012,08,16,02,15,15.50
2012,08,16,02,16,15.50
2012,08,16,02,17,15.50
2012,08,16,02,18,15.50
2012,08,16,02,19,15.50
2012,08,16,02,20,15.40
2012,08,16,02,21,15.40
2012,08,16,02,22,15.40
2012,08,16,02,23,15.40
2012,08,16,02,24,15.40
2012,08,16,02,25,15.40
2012,08,16,02,26,15.40
2012,08,16,02,27,15.40
2012,08,16,02,28,15.40
2012,08,16,02,29,15.40
2012,08,16,02,30,15.40
2012,08,16,02,31,15.40
2012,08,16,02,32,15.30
2012,08,16,02,33,15.30
2012,08,16,02,34,15.30
2012,08,16,02,35,15.30
2012,08,16,02,36,15.30
2012,08,16,02,37,15.30
2012,08,16,02,38,15.30
2012,08,16,02,39,15.30
2012,08,16,02,40,15.30
2012,08,16,02,41,15.30
2012,08,16,02,42,15.30
2012,08,16,02,43,15.30
2012,08,16,02,44,15.30
2012,08,16,02,45,15.30
2012,08,16,02,46,15.20
2012,08,16,02,47,15.20
2012,08,16,02,48,15.20
2012,08,16,02,49,15.20
2012,08,16,02,50,15.20
2012,08,16,02,51,15.20
2012,08,16,02,52,15.20
2012,08,16,02,53,15.20
2012,08,16,02,54,15.20
2012,08,16,02,55,15.20
2012,08,16,02,56,15.20
2012,08,16,02,57,15.20
2012,08,16,02,58,15.20
2012,08,16,02,59,15.20
2012,08,16,03,00,15.20
2012,08,16,03,01,15.20
2012,08,16,03,02,15.20
2012,08,16,03,03,15.20
2012,08,16,03,04,15.20
2012,08,16,03,05,15.20
2012,08,16,03,06,15.20
2012,08,16,03,07,15.20
2012,08,16,03,08,15.20
2012,08,16,03,09,15.10
2012,08,16,03,10,15.10
2012,08,16,03,11,15.10
2012,08,16,03,12,15.10
2012,08,16,03,13,15.10
2012,08,16,03,14,15.10
2012,08,16,03,15,15.10
2012,08,16,03,16,15.10
2012,08,16,03,17,15.10
2012,08,16,03,18,15.00
2012,08,16,03,19,15.00
2012,08,16,03,20,15.00
2012,08,16,03,21,15.00
2012,08,16,03,22,15.00
2012,08,16,03,23,15.00
2012,08,16,03,24,15.00
2012,08,16,03,25,15.00
2012,08,16,03,26,15.00
2012,08,16,03,27,15.00
2012,08,16,03,28,15.00
2012,08,16,03,29,15.00
2012,08,16,03,30,15.00
2012,08,16,03,31,15.00
2012,08,16,03,32,15.00
2012,08,16,03,33,15.00
2012,08,16,03,34,15.00
2012,08,16,03,35,15.00
2012,08,16,03,36,15.00
2012,08,16,03,37,15.00
2012,08,16,03,38,15.00
2012,08,16,03,39,15.00
2012,08,16,03,40,15.00
2012,08,16,03,41,14.90
2012,08,16,03,42,14.90
2012,08,16,03,43,14.90
2012,08,16,03,44,14.90
2012,08,16,03,45,14.90
2012,08,16,03,46,15.00
2012,08,16,03,47,15.00
2012,08,16,03,48,15.00
2012,08,16,03,49,15.00
2012,08,16,03,50,15.00
2012,08,16,03,51,15.00
2012,08,16,03,52,15.00
2012,08,16,03,53,15.00
2012,08,16,03,54,15.00
2012,08,16,03,55,15.10
2012,08,16,03,56,15.10
2012,08,16,03,57,15.10
2012,08,16,03,58,15.10
2012,08,16,03,59,15.10
2012,08,16,04,00,15.10
2012,08,16,04,01,15.20
2012,08,16,04,02,15.20
2012,08,16,04,03,15.20
2012,08,16,04,04,15.20
2012,08,16,04,05,15.20
2012,08,16,04,06,15.20
2012,08,16,04,07,15.20
2012,08,16,04,08,15.20
2012,08,16,04,09,15.20
2012,08,16,04,10,15.20
2012,08,16,04,11,15.20
2012,08,16,04,12,15.20
2012,08,16,04,13,15.20
2012,08,16,04,14,15.20
2012,08,16,04,15,15.20
2012,08,16,04,16,15.20
2012,08,16,04,17,15.20
2012,08,16,04,18,15.20
2012,08,16,04,19,15.20
2012,08,16,04,20,15.30
2012,08,16,04,21,15.30
2012,08,16,04,22,15.40
2012,08,16,04,23,15.40
2012,08,16,04,24,15.50
2012,08,16,04,25,15.50
2012,08,16,04,26,15.60
2012,08,16,04,27,15.60
2012,08,16,04,28,15.60
2012,08,16,04,29,15.70
2012,08,16,04,30,15.70
2012,08,16,04,31,15.70
2012,08,16,04,32,15.70
2012,08,16,04,33,15.70
2012,08,16,04,34,15.70
2012,08,16,04,35,15.70
2012,08,16,04,36,15.70
2012,08,16,04,37,15.70
2012,08,16,04,38,15.60
2012,08,16,04,39,15.60
2012,08,16,04,40,15.60
2012,08,16,04,41,15.60
2012,08,16,04,42,15.60
2012,08,16,04,43,15.50
2012,08,16,04,44,15.50
2012,08,16,04,45,15.40
2012,08,16,04,46,15.40
2012,08,16,04,47,15.40
2012,08,16,04,48,15.40
2012,08,16,04,49,15.40
2012,08,16,04,50,15.40
2012,08,16,04,51,15.30
2012,08,16,04,52,15.30
2012,08,16,04,53,15.30
2012,08,16,04,54,15.20
2012,08,16,04,55,15.20
2012,08,16,04,56,15.10
2012,08,16,04,57,15.10
2012,08,16,04,58,15.10
2012,08,16,04,59,15.00
2012,08,16,05,00,15.00
2012,08,16,05,01,14.90
2012,08,16,05,02,14.90
2012,08,16,05,03,14.90
2012,08,16,05,04,14.90
2012,08,16,05,05,14.80
2012,08,16,05,06,14.80
2012,08,16,05,07,14.80
2012,08,16,05,08,14.80
2012,08,16,05,09,14.80
2012,08,16,05,10,14.80
2012,08,16,05,11,14.80
2012,08,16,05,12,14.70
2012,08,16,05,13,14.70
2012,08,16,05,14,14.70
2012,08,16,05,15,14.70
2012,08,16,05,16,14.70
2012,08,16,05,17,14.70
2012,08,16,05,18,14.70
2012,08,16,05,19,14.70
2012,08,16,05,20,14.70
2012,08,16,05,21,14.70
2012,08,16,05,22,14.70
2012,08,16,05,23,14.70
2012,08,16,05,24,14.70
2012,08,16,05,25,14.70
2012,08,16,05,26,14.70
2012,08,16,05,27,14.60
2012,08,16,05,28,14.60
2012,08,16,05,29,14.60
2012,08,16,05,30,14.60
2012,08,16,05,31,14.60
2012,08,16,05,32,14.60
2012,08,16,05,33,14.50
2012,08,16,05,34,14.50
2012,08,16,05,35,14.50
2012,08,16,05,36,14.50
2012,08,16,05,37,14.50
2012,08,16,05,38,14.50
2012,08,16,05,39,14.50
2012,08,16,05,40,14.50
2012,08,16,05,41,14.50
2012,08,16,05,42,14.40
2012,08,16,05,43,14.40
2012,08,16,05,44,14.40
2012,08,16,05,45,14.40
2012,08,16,05,46,14.40
2012,08,16,05,47,14.40
2012,08,16,05,48,14.40
2012,08,16,05,49,14.40
2012,08,16,05,50,14.40
2012,08,16,05,51,14.30
2012,08,16,05,52,14.30
2012,08,16,05,53,14.30
2012,08,16,05,54,14.30
2012,08,16,05,55,14.30
2012,08,16,05,56,14.30
2012,08,16,05,57,14.30
2012,08,16,05,58,14.30
2012,08,16,05,59,14.30
2012,08,16,06,00,14.30
2012,08,16,06,01,14.30
2012,08,16,06,02,14.30
2012,08,16,06,03,14.30
2012,08,16,06,04,14.30
2012,08,16,06,05,14.20
2012,08,16,06,06,14.20
2012,08,16,06,07,14.20
2012,08,16,06,08,14.20
2012,08,16,06,09,14.20
2012,08,16,06,10,14.20
2012,08,16,06,11,14.20
2012,08,16,06,12,14.20
2012,08,16,06,13,14.20
2012,08,16,06,14,14.20
2012,08,16,06,15,14.20
2012,08,16,06,16,14.10
2012,08,16,06,17,14.10
2012,08,16,06,18,14.10
2012,08,16,06,19,14.10
2012,08,16,06,20,14.10
2012,08,16,06,21,14.10
2012,08,16,06,22,14.10
2012,08,16,06,23,14.10
2012,08,16,06,24,14.10
2012,08,16,06,25,14.10
2012,08,16,06,26,14.10
2012,08,16,06,27,14.10
2012,08,16,06,28,14.00
2012,08,16,06,29,14.00
2012,08,16,06,30,14.00
2012,08,16,06,31,14.00
2012,08,16,06,32,14.00
2012,08,16,06,33,13.90
2012,08,16,06,34,13.90
2012,08,16,06,35,13.90
2012,08,16,06,36,14.00
2012,08,16,06,37,14.00
2012,08,16,06,38,14.00
2012,08,16,06,39,14.00
2012,08,16,06,40,14.00
2012,08,16,06,41,14.00
2012,08,16,06,42,14.00
2012,08,16,06,43,14.00
2012,08,16,06,44,14.00
2012,08,16,06,45,14.00
2012,08,16,06,46,14.00
2012,08,16,06,47,14.10
2012,08,16,06,48,14.10
2012,08,16,06,49,14.10
2012,08,16,06,50,14.20
2012,08,16,06,51,14.20
2012,08,16,06,52,14.20
2012,08,16,06,53,14.30
2012,08,16,06,54,14.30
2012,08,16,06,55,14.30
2012,08,16,06,56,14.40
2012,08,16,06,57,14.40
2012,08,16,06,58,14.40
2012,08,16,06,59,14.40
2012,08,16,07,00,14.40
2012,08,16,07,01,14.50
2012,08,16,07,02,14.50
2012,08,16,07,03,14.50
2012,08,16,07,04,14.60
2012,08,16,07,05,14.60
2012,08,16,07,06,14.60
2012,08,16,07,07,14.60
2012,08,16,07,08,14.60
2012,08,16,07,09,14.70
2012,08,16,07,10,14.70
2012,08,16,07,11,14.70
2012,08,16,07,12,14.70
2012,08,16,07,13,14.70
2012,08,16,07,14,14.70
2012,08,16,07,15,14.70
2012,08,16,07,16,14.70
2012,08,16,07,17,14.70
2012,08,16,07,18,14.70
2012,08,16,07,19,14.70
2012,08,16,07,20,14.70
2012,08,16,07,21,14.70
2012,08,16,07,22,14.70
2012,08,16,07,23,14.70
2012,08,16,07,24,14.70
2012,08,16,07,25,14.70
2012,08,16,07,26,14.70
2012,08,16,07,27,14.70
2012,08,16,07,28,14.70
2012,08,16,07,29,14.70
2012,08,16,07,30,14.80
2012,08,16,07,31,14.80
2012,08,16,07,32,14.80
2012,08,16,07,33,14.80
2012,08,16,07,34,14.80
2012,08,16,07,35,14.90
2012,08,16,07,36,14.90
2012,08,16,07,37,14.90
2012,08,16,07,38,15.00
2012,08,16,07,39,15.00
2012,08,16,07,40,15.10
2012,08,16,07,41,15.10
2012,08,16,07,42,15.10
2012,08,16,07,43,15.20
2012,08,16,07,44,15.20
2012,08,16,07,45,15.20
2012,08,16,07,46,15.30
2012,08,16,07,47,15.30
2012,08,16,07,48,15.40
2012,08,16,07,49,15.40
2012,08,16,07,50,15.50
2012,08,16,07,51,15.50
2012,08,16,07,52,15.60
2012,08,16,07,53,15.60
2012,08,16,07,54,15.70
2012,08,16,07,55,15.80
2012,08,16,07,56,15.90
2012,08,16,07,57,16.00
2012,08,16,07,58,16.20
2012,08,16,07,59,16.30
2012,08,16,08,00,16.50
2012,08,16,08,01,16.70
2012,08,16,08,02,16.90
2012,08,16,08,03,17.00
2012,08,16,08,04,17.10
2012,08,16,08,05,17.20
2012,08,16,08,06,17.30
2012,08,16,08,07,17.40
2012,08,16,08,08,17.50
2012,08,16,08,09,17.60
2012,08,16,08,10,17.60
2012,08,16,08,11,17.70
2012,08,16,08,12,17.70
2012,08,16,08,13,17.80
2012,08,16,08,14,17.90
2012,08,16,08,15,17.90
2012,08,16,08,16,18.00
2012,08,16,08,17,18.10
2012,08,16,08,18,18.20
2012,08,16,08,19,18.20
2012,08,16,08,20,18.40
2012,08,16,08,21,18.50
2012,08,16,08,22,18.60
2012,08,16,08,23,18.70
2012,08,16,08,24,18.80
2012,08,16,08,25,18.90
2012,08,16,08,26,19.00
2012,08,16,08,27,19.10
2012,08,16,08,28,19.20
2012,08,16,08,29,19.40
2012,08,16,08,30,19.50
2012,08,16,08,31,19.60
2012,08,16,08,32,19.70
2012,08,16,08,33,19.80
2012,08,16,08,34,19.80
2012,08,16,08,35,19.90
2012,08,16,08,36,20.00
2012,08,16,08,37,20.10
2012,08,16,08,38,20.20
2012,08,16,08,39,20.30
2012,08,16,08,40,20.40
2012,08,16,08,41,20.50
2012,08,16,08,42,20.70
2012,08,16,08,43,20.70
2012,08,16,08,44,20.80
2012,08,16,08,45,20.80
2012,08,16,08,46,20.90
2012,08,16,08,47,20.90
2012,08,16,08,48,21.00
2012,08,16,08,49,21.00
2012,08,16,08,50,21.10
2012,08,16,08,51,21.10
2012,08,16,08,52,21.10
2012,08,16,08,53,21.10
2012,08,16,08,54,21.10
2012,08,16,08,55,21.20
2012,08,16,08,56,21.20
2012,08,16,08,57,21.20
2012,08,16,08,58,21.30
2012,08,16,08,59,21.30
2012,08,16,09,00,21.30
2012,08,16,09,01,21.30
2012,08,16,09,02,21.40
2012,08,16,09,03,21.40
2012,08,16,09,04,21.40
2012,08,16,09,05,21.40
2012,08,16,09,06,21.40
2012,08,16,09,07,21.30
2012,08,16,09,08,21.30
2012,08,16,09,09,21.40
2012,08,16,09,10,21.40
2012,08,16,09,11,21.40
2012,08,16,09,12,21.40
2012,08,16,09,13,21.50
2012,08,16,09,14,21.50
2012,08,16,09,15,21.60
2012,08,16,09,16,21.70
2012,08,16,09,17,21.90
2012,08,16,09,18,22.00
2012,08,16,09,19,22.10
2012,08,16,09,20,22.30
2012,08,16,09,21,22.40
2012,08,16,09,22,22.50
2012,08,16,09,23,22.60
2012,08,16,09,24,22.80
2012,08,16,09,25,22.90
2012,08,16,09,26,23.10
2012,08,16,09,27,23.30
2012,08,16,09,28,23.40
2012,08,16,09,29,23.60
2012,08,16,09,30,23.80
2012,08,16,09,31,24.10
2012,08,16,09,32,24.20
2012,08,16,09,33,24.30
2012,08,16,09,34,24.40
2012,08,16,09,35,24.50
2012,08,16,09,36,24.50
2012,08,16,09,37,24.60
2012,08,16,09,38,24.70
2012,08,16,09,39,24.80
2012,08,16,09,40,24.90
2012,08,16,09,41,24.90
2012,08,16,09,42,25.00
2012,08,16,09,43,25.00
2012,08,16,09,44,25.10
2012,08,16,09,45,25.10
2012,08,16,09,46,25.30
2012,08,16,09,47,25.30
2012,08,16,09,48,25.40
2012,08,16,09,49,25.50
2012,08,16,09,50,25.70
2012,08,16,09,51,25.80
2012,08,16,09,52,25.90
2012,08,16,09,53,26.10
2012,08,16,09,54,26.20
2012,08,16,09,55,26.30
2012,08,16,09,56,26.50
2012,08,16,09,57,26.60
2012,08,16,09,58,26.70
2012,08,16,09,59,26.80
2012,08,16,10,00,26.90
2012,08,16,10,01,26.90
2012,08,16,10,02,26.80
2012,08,16,10,03,26.70
2012,08,16,10,04,26.40
2012,08,16,10,05,26.10
2012,08,16,10,06,25.90
2012,08,16,10,07,25.70
2012,08,16,10,08,25.50
2012,08,16,10,09,25.30
2012,08,16,10,10,25.20
2012,08,16,10,11,25.00
2012,08,16,10,12,24.90
2012,08,16,10,13,24.80
2012,08,16,10,14,24.70
2012,08,16,10,15,24.70
2012,08,16,10,16,24.60
2012,08,16,10,17,24.50
2012,08,16,10,18,24.50
2012,08,16,10,19,24.50
2012,08,16,10,20,24.40
2012,08,16,10,21,24.40
2012,08,16,10,22,24.40
2012,08,16,10,23,24.30
2012,08,16,10,24,24.30
2012,08,16,10,25,24.30
2012,08,16,10,26,24.30
2012,08,16,10,27,24.30
2012,08,16,10,28,24.30
2012,08,16,10,29,24.30
2012,08,16,10,30,24.30
2012,08,16,10,31,24.40
2012,08,16,10,32,24.40
2012,08,16,10,33,24.30
2012,08,16,10,34,24.30
2012,08,16,10,35,24.30
2012,08,16,10,36,24.40
2012,08,16,10,37,24.40
2012,08,16,10,38,24.50
2012,08,16,10,39,24.60
2012,08,16,10,40,24.70
2012,08,16,10,41,24.70
2012,08,16,10,42,24.80
2012,08,16,10,43,24.90
2012,08,16,10,44,24.90
2012,08,16,10,45,24.90
2012,08,16,10,46,24.90
2012,08,16,10,47,24.90
2012,08,16,10,48,24.90
2012,08,16,10,49,24.90
2012,08,16,10,50,24.90
2012,08,16,10,51,24.90
2012,08,16,10,52,24.90
2012,08,16,10,53,24.80
2012,08,16,10,54,24.80
2012,08,16,10,55,24.80
2012,08,16,10,56,24.80
2012,08,16,10,57,24.70
2012,08,16,10,58,24.70
2012,08,16,10,59,24.70
2012,08,16,11,00,24.70
2012,08,16,11,01,24.70
2012,08,16,11,02,24.70
2012,08,16,11,03,24.80
2012,08,16,11,04,24.90
2012,08,16,11,05,25.00
2012,08,16,11,06,25.20
2012,08,16,11,07,25.30
2012,08,16,11,08,25.30
2012,08,16,11,09,25.40
2012,08,16,11,10,25.40
2012,08,16,11,11,25.40
2012,08,16,11,12,25.40
2012,08,16,11,13,25.40
2012,08,16,11,14,25.40
2012,08,16,11,15,25.30
2012,08,16,11,16,25.20
2012,08,16,11,17,25.00
2012,08,16,11,18,24.90
2012,08,16,11,19,24.80
2012,08,16,11,20,24.80
2012,08,16,11,21,24.70
2012,08,16,11,22,24.70
2012,08,16,11,23,24.70
2012,08,16,11,24,24.60
2012,08,16,11,25,24.60
2012,08,16,11,26,24.60
2012,08,16,11,27,24.50
2012,08,16,11,28,24.50
2012,08,16,11,29,24.50
2012,08,16,11,30,24.60
2012,08,16,11,31,24.60
2012,08,16,11,32,24.60
2012,08,16,11,33,24.60
2012,08,16,11,34,24.60
2012,08,16,11,35,24.70
2012,08,16,11,36,24.80
2012,08,16,11,37,24.80
2012,08,16,11,38,24.70
2012,08,16,11,39,24.70
2012,08,16,11,40,24.60
2012,08,16,11,41,24.60
2012,08,16,11,42,24.60
2012,08,16,11,43,24.60
2012,08,16,11,44,24.60
2012,08,16,11,45,24.60
2012,08,16,11,46,24.60
2012,08,16,11,47,24.60
2012,08,16,11,48,24.60
2012,08,16,11,49,24.60
2012,08,16,11,50,24.60
2012,08,16,11,51,24.60
2012,08,16,11,52,24.60
2012,08,16,11,53,24.50
2012,08,16,11,54,24.50
2012,08,16,11,55,24.50
2012,08,16,11,56,24.40
2012,08,16,11,57,24.40
2012,08,16,11,58,24.30
2012,08,16,11,59,24.30
2012,08,16,12,00,24.30
2012,08,16,12,01,24.30
2012,08,16,12,02,24.20
2012,08,16,12,03,24.30
2012,08,16,12,04,24.30
2012,08,16,12,05,24.30
2012,08,16,12,06,24.30
2012,08,16,12,07,24.30
2012,08,16,12,08,24.30
2012,08,16,12,09,24.40
2012,08,16,12,10,24.40
2012,08,16,12,11,24.50
2012,08,16,12,12,24.60
2012,08,16,12,13,24.60
2012,08,16,12,14,24.70
2012,08,16,12,15,24.70
2012,08,16,12,16,24.70
2012,08,16,12,17,24.70
2012,08,16,12,18,24.70
2012,08,16,12,19,24.70
2012,08,16,12,20,24.70
2012,08,16,12,21,24.70
2012,08,16,12,22,24.80
2012,08,16,12,23,24.80
2012,08,16,12,24,24.90
2012,08,16,12,25,25.00
2012,08,16,12,26,25.10
2012,08,16,12,27,25.20
2012,08,16,12,28,25.30
2012,08,16,12,29,25.40
2012,08,16,12,30,25.40
2012,08,16,12,31,25.60
2012,08,16,12,32,25.70
2012,08,16,12,33,25.80
2012,08,16,12,34,25.80
2012,08,16,12,35,25.90
2012,08,16,12,36,25.90
2012,08,16,12,37,25.90
2012,08,16,12,38,25.90
2012,08,16,12,39,25.90
2012,08,16,12,40,25.90
2012,08,16,12,41,25.80
2012,08,16,12,42,25.80
2012,08,16,12,43,25.80
2012,08,16,12,44,25.80
2012,08,16,12,45,25.80
2012,08,16,12,46,25.90
2012,08,16,12,47,25.90
2012,08,16,12,48,25.90
2012,08,16,12,49,25.90
2012,08,16,12,50,26.00
2012,08,16,12,51,26.10
2012,08,16,12,52,26.10
2012,08,16,12,53,26.20
2012,08,16,12,54,26.20
2012,08,16,12,55,26.20
2012,08,16,12,56,26.20
2012,08,16,12,57,26.20
2012,08,16,12,58,26.30
2012,08,16,12,59,26.30
2012,08,16,13,00,26.30
2012,08,16,13,01,26.30
2012,08,16,13,02,26.30
2012,08,16,13,03,26.30
2012,08,16,13,04,26.30
2012,08,16,13,05,26.30
2012,08,16,13,06,26.30
2012,08,16,13,07,26.40
2012,08,16,13,08,26.30
2012,08,16,13,09,26.30
2012,08,16,13,10,26.30
2012,08,16,13,11,26.30
2012,08,16,13,12,26.30
2012,08,16,13,13,26.30
2012,08,16,13,14,26.30
2012,08,16,13,15,26.20
2012,08,16,13,16,26.10
2012,08,16,13,17,26.00
2012,08,16,13,18,25.90
2012,08,16,13,19,25.80
2012,08,16,13,20,25.80
2012,08,16,13,21,25.80
2012,08,16,13,22,25.80
2012,08,16,13,23,25.80
2012,08,16,13,24,25.90
2012,08,16,13,25,25.90
2012,08,16,13,26,26.00
2012,08,16,13,27,26.00
2012,08,16,13,28,26.00
2012,08,16,13,29,26.00
2012,08,16,13,30,26.00
2012,08,16,13,31,26.00
2012,08,16,13,32,25.90
2012,08,16,13,33,25.90
2012,08,16,13,34,25.90
2012,08,16,13,35,25.90
2012,08,16,13,36,25.90
2012,08,16,13,37,25.90
2012,08,16,13,38,25.90
2012,08,16,13,39,25.90
2012,08,16,13,40,25.90
2012,08,16,13,41,25.80
2012,08,16,13,42,25.80
2012,08,16,13,43,25.70
2012,08,16,13,44,25.60
2012,08,16,13,45,25.60
2012,08,16,13,46,25.60
2012,08,16,13,47,25.60
2012,08,16,13,48,25.50
2012,08,16,13,49,25.40
2012,08,16,13,50,25.30
2012,08,16,13,51,25.20
2012,08,16,13,52,25.10
2012,08,16,13,53,24.90
2012,08,16,13,54,24.80
2012,08,16,13,55,24.80
2012,08,16,13,56,24.70
2012,08,16,13,57,24.70
2012,08,16,13,58,24.70
2012,08,16,13,59,24.70
2012,08,16,14,00,24.60
2012,08,16,14,01,24.60
2012,08,16,14,02,24.70
2012,08,16,14,03,24.70
2012,08,16,14,04,24.70
2012,08,16,14,05,24.80
2012,08,16,14,06,24.80
2012,08,16,14,07,24.90
2012,08,16,14,08,25.00
2012,08,16,14,09,25.10
2012,08,16,14,10,25.10
2012,08,16,14,11,25.20
2012,08,16,14,12,25.30
2012,08,16,14,13,25.30
2012,08,16,14,14,25.20
2012,08,16,14,15,25.20
2012,08,16,14,16,25.20
2012,08,16,14,17,25.20
2012,08,16,14,18,25.10
2012,08,16,14,19,25.10
2012,08,16,14,20,25.10
2012,08,16,14,21,25.10
2012,08,16,14,22,25.10
2012,08,16,14,23,25.10
2012,08,16,14,24,25.00
2012,08,16,14,25,24.90
2012,08,16,14,26,24.90
2012,08,16,14,27,24.90
2012,08,16,14,28,24.90
2012,08,16,14,29,24.90
2012,08,16,14,30,24.90
2012,08,16,14,31,24.90
2012,08,16,14,32,24.90
2012,08,16,14,33,24.90
2012,08,16,14,34,24.90
2012,08,16,14,35,24.90
2012,08,16,14,36,24.80
2012,08,16,14,37,24.80
2012,08,16,14,38,24.80
2012,08,16,14,39,24.70
2012,08,16,14,40,24.60
2012,08,16,14,41,24.50
2012,08,16,14,42,24.40
2012,08,16,14,43,24.30
2012,08,16,14,44,24.30
2012,08,16,14,45,24.40
2012,08,16,14,46,24.40
2012,08,16,14,47,24.40
2012,08,16,14,48,24.40
2012,08,16,14,49,24.40
2012,08,16,14,50,24.40
2012,08,16,14,51,24.30
2012,08,16,14,52,24.30
2012,08,16,14,53,24.20
2012,08,16,14,54,24.20
2012,08,16,14,55,24.30
2012,08,16,14,56,24.30
2012,08,16,14,57,24.30
2012,08,16,14,58,24.40
2012,08,16,14,59,24.50
2012,08,16,15,00,24.60
2012,08,16,15,01,24.50
2012,08,16,15,02,24.40
2012,08,16,15,03,24.40
2012,08,16,15,04,24.30
2012,08,16,15,05,24.30
2012,08,16,15,06,24.30
2012,08,16,15,07,24.40
2012,08,16,15,08,24.30
2012,08,16,15,09,24.30
2012,08,16,15,10,24.40
2012,08,16,15,11,24.40
2012,08,16,15,12,24.50
2012,08,16,15,13,24.50
2012,08,16,15,14,24.60
2012,08,16,15,15,24.70
2012,08,16,15,16,24.80
2012,08,16,15,17,24.90
2012,08,16,15,18,25.00
2012,08,16,15,19,24.90
2012,08,16,15,20,24.90
2012,08,16,15,21,24.90
2012,08,16,15,22,24.90
2012,08,16,15,23,25.00
2012,08,16,15,24,25.00
2012,08,16,15,25,25.00
2012,08,16,15,26,25.10
2012,08,16,15,27,25.20
2012,08,16,15,28,25.10
2012,08,16,15,29,25.00
2012,08,16,15,30,24.90
2012,08,16,15,31,24.80
2012,08,16,15,32,24.70
2012,08,16,15,33,24.60
2012,08,16,15,34,24.60
2012,08,16,15,35,24.50
2012,08,16,15,36,24.50
2012,08,16,15,37,24.50
2012,08,16,15,38,24.60
2012,08,16,15,39,24.60
2012,08,16,15,40,24.60
2012,08,16,15,41,24.60
2012,08,16,15,42,24.60
2012,08,16,15,43,24.60
2012,08,16,15,44,24.60
2012,08,16,15,45,24.70
2012,08,16,15,46,24.80
2012,08,16,15,47,24.80
2012,08,16,15,48,24.90
2012,08,16,15,49,24.90
2012,08,16,15,50,25.00
2012,08,16,15,51,25.00
2012,08,16,15,52,25.10
2012,08,16,15,53,25.10
2012,08,16,15,54,25.20
2012,08,16,15,55,25.20
2012,08,16,15,56,25.20
2012,08,16,15,57,25.20
2012,08,16,15,58,25.20
2012,08,16,15,59,25.20
2012,08,16,16,00,25.20
2012,08,16,16,01,25.20
2012,08,16,16,02,25.10
2012,08,16,16,03,25.10
2012,08,16,16,04,25.10
2012,08,16,16,05,25.10
2012,08,16,16,06,25.10
2012,08,16,16,07,25.00
2012,08,16,16,08,24.90
2012,08,16,16,09,25.00
2012,08,16,16,10,25.00
2012,08,16,16,11,24.90
2012,08,16,16,12,25.00
2012,08,16,16,13,25.00
2012,08,16,16,14,25.00
2012,08,16,16,15,25.10
2012,08,16,16,16,25.10
2012,08,16,16,17,25.20
2012,08,16,16,18,25.20
2012,08,16,16,19,25.20
2012,08,16,16,20,25.30
2012,08,16,16,21,25.30
2012,08,16,16,22,25.30
2012,08,16,16,23,25.30
2012,08,16,16,24,25.40
2012,08,16,16,25,25.40
2012,08,16,16,26,25.50
2012,08,16,16,27,25.70
2012,08,16,16,28,25.70
2012,08,16,16,29,25.70
2012,08,16,16,30,25.80
2012,08,16,16,31,25.80
2012,08,16,16,32,25.80
2012,08,16,16,33,25.80
2012,08,16,16,34,25.80
2012,08,16,16,35,25.80
2012,08,16,16,36,25.80
2012,08,16,16,37,25.90
2012,08,16,16,38,25.90
2012,08,16,16,39,25.90
2012,08,16,16,40,25.90
2012,08,16,16,41,25.90
2012,08,16,16,42,25.80
2012,08,16,16,43,25.80
2012,08,16,16,44,25.80
2012,08,16,16,45,25.80
2012,08,16,16,46,25.70
2012,08,16,16,47,25.70
2012,08,16,16,48,25.70
2012,08,16,16,49,25.60
2012,08,16,16,50,25.60
2012,08,16,16,51,25.60
2012,08,16,16,52,25.60
2012,08,16,16,53,25.60
2012,08,16,16,54,25.60
2012,08,16,16,55,25.70
2012,08,16,16,56,25.70
2012,08,16,16,57,25.70
2012,08,16,16,58,25.80
2012,08,16,16,59,25.80
2012,08,16,17,00,25.80
2012,08,16,17,01,25.90
2012,08,16,17,02,26.00
2012,08,16,17,03,26.10
2012,08,16,17,04,26.20
2012,08,16,17,05,26.30
2012,08,16,17,06,26.30
2012,08,16,17,07,26.20
2012,08,16,17,08,26.10
2012,08,16,17,09,26.00
2012,08,16,17,10,25.90
2012,08,16,17,11,25.80
2012,08,16,17,12,25.70
2012,08,16,17,13,25.60
2012,08,16,17,14,25.50
2012,08,16,17,15,25.40
2012,08,16,17,16,25.30
2012,08,16,17,17,25.10
2012,08,16,17,18,25.00
2012,08,16,17,19,24.90